Flag for Brazil Weather past 2 weeks in Rio de Janeiro, Rio de Janeiro, Brazil

Now
70 °F

Passing clouds.


Feels Like: 70 °F
Forecast: 66 / 80 °F
Wind: 5 mph from East

Location: Rio De Janeiro Airport

Current Time: Oct 23, 2014 at 6:16:12 AM

Latest Report: Oct 23, 2014 at 6:00 AM


Visibility: N/A

Pressure: 30.12 "Hg

Humidity: 73%

Dew point: 61 °F

Location of Rio de JaneiroLocation

Historic Weather in Rio de Janeiro — Graph

°F

Rio de Janeiro temperature yesterday

Maximum temperature yesterday: 73 °F (at 1:00 PM)
Minimum temperature yesterday: 66 °F (at 6:00 AM)
Average temperature yesterday: 70 °F

Past Weeks' High & Low Weather Summary

 TemperatureHumidityPressure
High91 °F (Oct 13, 12:00 PM)100% (Oct 12, 6:00 AM)30.21 "Hg (Oct 12, 6:00 AM)
Low64 °F (Oct 12, 11:00 PM)37% (Oct 8, 11:00 AM)29.68 "Hg (Oct 19, 4:00 PM)
Average76 °F75%29.97 "Hg
* Reported Oct 7 10:00 PM — Oct 22 11:00 PM, Rio de Janeiro, Weather by CustomWeather, © 2014

Note: Actual official high and low records may vary slightly from our data, if they occured in-between our weather recording intervals... More about our weather records

Advertising

Rio de Janeiro weather history for previous 24 hours

 ConditionsComfort  
Time TempWeatherWind HumidityBarometerVisibility
11:00 PM
Oct 22
70 °FPartly cloudy.7 mph73%30.21 "HgN/A
10:00 PM70 °FPartly cloudy.7 mph73%30.21 "HgN/A
9:00 PM70 °FPartly cloudy.10 mph73%30.18 "HgN/A
8:00 PM70 °FPartly cloudy.10 mph73%30.15 "HgN/A
7:00 PM72 °FPartly cloudy.10 mph69%30.15 "HgN/A
6:00 PM72 °FBroken clouds.8 mph65%30.15 "HgN/A
5:00 PM72 °FPartly sunny.8 mph61%30.12 "HgN/A
4:00 PM72 °FPartly sunny.12 mph65%30.12 "HgN/A
3:00 PM73 °FPartly sunny.12 mph65%30.15 "HgN/A
2:00 PM73 °FPartly sunny.12 mph65%30.15 "HgN/A
1:00 PM73 °FPartly sunny.9 mph69%30.18 "HgN/A
12:00 PM72 °FBroken clouds.7 mph73%30.18 "HgN/A
11:00 AM72 °FBroken clouds.3 mph69%30.18 "HgN/A
10:00 AM72 °FPartly sunny.2 mph73%30.18 "HgN/A
9:00 AM68 °FPartly sunny.3 mph83%30.18 "HgN/A
8:00 AM66 °FOvercast.5 mph88%30.18 "HgN/A
7:00 AM66 °FOvercast.2 mph88%30.15 "HgN/A
6:00 AM66 °FPartly cloudy.6 mph88%30.12 "Hg5 mi
Weather by CustomWeather, © 2014

See weather overviewHow to use our weather pages